GW3910 Weather Reports


time (UTC)temp
C
wind
direction
speed
KPH
gust
KPH
rain 1hr
cm
rain 24hr
cm
rain mn
cm
humidity
%
barometer
mb
20260502164142 11 322 0.0 3.2 0.00 0.00 0.00 84 1013.5
20260502163638 11 304 4.8 4.8 0.00 0.00 0.00 84 1013.5
20260502163135 11 328 1.6 4.8 0.00 0.00 0.00 85 1013.7
20260502162631 11 2 1.6 4.8 0.00 0.00 0.00 84 1013.7
20260502162128 11 28 0.0 3.2 0.00 0.00 0.00 85 1013.5
20260502161626 11 269 1.6 8.0 0.00 0.00 0.00 84 1013.7
20260502161123 11 269 3.2 3.2 0.00 0.00 0.00 84 1013.8
20260502160621 11 308 0.0 3.2 0.00 0.00 0.00 83 1013.8
20260502160119 11 341 0.0 3.2 0.00 0.00 0.00 82 1013.6
20260502152033 10 322 0.0 0.0 0.00 0.00 0.00 84 1014.4
20260502151530 10 11 1.6 1.6 0.00 0.00 0.00 83 1014.0
20260502151028 10 17 1.6 1.6 0.00 0.00 0.00 83 1014.0
20260502150525 10 227 1.6 3.2 0.00 0.00 0.00 82 1014.4
20260502130404 9 30 0.0 1.6 0.00 0.00 0.00 83 1014.1
20260502123347 10 163 3.2 3.2 0.00 0.00 0.00 84 1014.2
20260502122844 10 27 0.0 3.2 0.00 0.00 0.00 83 1014.4
20260502122339 9 31 0.0 1.6 0.00 0.00 0.00 87 1014.4
20260502121838 9 34 1.6 3.2 0.00 0.00 0.00 87 1014.3
20260502121335 8 9 0.0 0.0 0.00 0.00 0.00 89 1014.1
20260502120832 8 43 0.0 3.2 0.00 0.00 0.00 89 1014.5
20260502120328 8 80 1.6 3.2 0.00 0.00 0.00 89 1014.8
20260502115826 8 343 0.0 1.6 0.00 0.00 0.00 89 1014.9
20260502115323 8 20 0.0 0.0 0.00 0.00 0.00 90 1014.8
20260502114819 8 3 0.0 0.0 0.00 0.00 0.00 90 1014.4
20260502114316 8 11 1.6 1.6 0.00 0.00 0.00 91 1014.4
20260502113813 8 293 1.6 1.6 0.00 0.00 0.00 90 1014.7
20260502113311 8 280 1.6 1.6 0.00 0.00 0.00 90 1014.7
20260502112809 8 344 0.0 1.6 0.00 0.00 0.00 90 1014.4
20260502112306 8 329 1.6 1.6 0.00 0.00 0.00 90 1014.5
20260502111803 8 327 0.0 0.0 0.00 0.00 0.00 90 1014.7
20260502111301 8 327 0.0 1.6 0.00 0.00 0.00 90 1014.6
20260502110758 8 326 0.0 1.6 0.00 0.00 0.00 90 1014.6
20260502110256 8 336 0.0 0.0 0.00 0.00 0.00 90 1014.2
20260502105754 8 346 0.0 0.0 0.00 0.00 0.00 91 1014.1
20260502105249 8 349 0.0 1.6 0.00 0.00 0.00 91 1014.2
20260502104748 8 339 0.0 1.6 0.00 0.00 0.00 91 1014.2
20260502104245 8 320 0.0 1.6 0.00 0.00 0.00 91 1014.3
20260502103742 8 329 0.0 1.6 0.00 0.00 0.00 91 1014.2
20260502103240 7 295 1.6 1.6 0.00 0.00 0.00 91 1014.0
20260502102736 7 263 1.6 3.2 0.00 0.00 0.00 91 1013.9
20260502102233 7 298 0.0 1.6 0.00 0.00 0.00 91 1014.0
20260502101731 7 313 0.0 1.6 0.00 0.00 0.00 91 1014.0
20260502101229 7 305 1.6 1.6 0.00 0.00 0.00 90 1013.9
20260502100727 7 318 0.0 0.0 0.00 0.00 0.00 90 1013.8
20260502100225 7 285 1.6 1.6 0.00 0.00 0.00 90 1013.7
20260502091159 7 330 0.0 1.6 0.00 0.00 0.00 88 1013.5
20260502090656 7 314 0.0 1.6 0.00 0.00 0.00 88 1013.7
20260502090153 7 301 0.0 1.6 0.00 0.00 0.00 88 1013.7
20260502071055 8 303 1.6 3.2 0.00 0.00 0.00 83 1013.8
20260502070553 8 294 1.6 3.2 0.00 0.00 0.00 83 1013.8
20260502070050 8 271 1.6 3.2 0.00 0.00 0.00 83 1013.8
20260502065549 8 286 3.2 3.2 0.00 0.00 0.00 82 1013.7
20260502065046 8 294 1.6 1.6 0.00 0.00 0.00 83 1013.8
20260502064545 8 296 0.0 1.6 0.00 0.00 0.00 81 1013.9
20260502064041 8 263 1.6 1.6 0.00 0.00 0.00 81 1013.8
20260502063539 8 313 1.6 3.2 0.00 0.00 0.00 81 1013.8
20260502063037 8 324 0.0 1.6 0.00 0.00 0.00 81 1013.8
20260502062534 8 294 1.6 1.6 0.00 0.00 0.00 81 1013.8
20260502062032 8 312 0.0 1.6 0.00 0.00 0.00 80 1013.9
20260502061530 8 15 0.0 1.6 0.00 0.00 0.00 81 1014.0
20260502061026 8 354 0.0 1.6 0.00 0.00 0.00 80 1013.8
20260502060521 8 264 1.6 3.2 0.00 0.00 0.00 80 1013.9
20260502060013 8 251 3.2 3.2 0.00 0.00 0.00 80 1014.1
20260502055510 8 279 1.6 1.6 0.00 0.00 0.00 80 1014.2
20260502055009 8 262 1.6 4.8 0.00 0.00 0.00 79 1014.2
20260502054507 8 232 1.6 3.2 0.00 0.00 0.00 80 1014.3
20260502054003 8 250 1.6 3.2 0.00 0.00 0.00 80 1014.0
20260502053500 8 202 1.6 3.2 0.00 0.00 0.00 80 1014.1
20260502052959 8 295 0.0 1.6 0.00 0.00 0.00 80 1014.1
20260502052456 8 240 1.6 3.2 0.00 0.00 0.00 80 1014.1
20260502051955 8 205 1.6 3.2 0.00 0.00 0.00 80 1014.4
20260502051452 8 292 1.6 1.6 0.00 0.00 0.00 80 1014.3
20260502050949 8 260 1.6 3.2 0.00 0.00 0.00 79 1014.4
20260502050445 8 312 0.0 3.2 0.00 0.00 0.00 79 1014.5
20260502045943 8 314 1.6 3.2 0.00 0.00 0.00 79 1014.2
20260502045439 9 226 3.2 3.2 0.00 0.00 0.00 79 1014.5
20260502044937 9 299 0.0 1.6 0.00 0.00 0.00 78 1014.4
20260502044432 9 237 4.8 4.8 0.00 0.00 0.00 79 1014.6
20260502043929 9 303 0.0 1.6 0.00 0.00 0.00 78 1014.5
20260502043427 9 295 1.6 3.2 0.00 0.00 0.00 78 1014.6
20260502042926 9 277 1.6 3.2 0.00 0.00 0.00 77 1014.5
20260502042424 9 269 1.6 1.6 0.00 0.00 0.00 77 1014.5
20260502041921 9 229 1.6 3.2 0.00 0.00 0.00 77 1014.7
20260502041419 9 289 1.6 3.2 0.00 0.00 0.00 77 1014.6
20260502040916 9 137 1.6 3.2 0.00 0.00 0.00 77 1014.4
20260502040412 9 267 1.6 1.6 0.00 0.00 0.00 76 1014.6
20260502035908 9 289 0.0 1.6 0.00 0.00 0.00 76 1014.6
20260502035405 10 312 0.0 1.6 0.00 0.00 0.00 76 1014.5
20260502034902 10 260 1.6 3.2 0.00 0.00 0.00 76 1014.5
20260502034401 10 282 1.6 3.2 0.00 0.00 0.00 75 1014.4
20260502033859 10 242 1.6 3.2 0.00 0.00 0.00 75 1014.5
20260502033356 10 297 1.6 1.6 0.00 0.00 0.00 75 1014.6
20260502032853 10 307 1.6 3.2 0.00 0.00 0.00 74 1014.7
20260502032349 10 234 3.2 3.2 0.00 0.00 0.00 75 1014.7
20260502031847 10 289 1.6 1.6 0.00 0.00 0.00 75 1014.7
20260502031345 10 333 1.6 3.2 0.00 0.00 0.00 75 1014.7
20260502030843 10 253 1.6 1.6 0.00 0.00 0.00 74 1014.6
20260502030341 10 307 1.6 1.6 0.00 0.00 0.00 74 1014.8
20260502025837 10 321 0.0 1.6 0.00 0.00 0.00 74 1014.4
20260502025335 10 317 1.6 1.6 0.00 0.00 0.00 74 1014.6
20260502024833 10 247 3.2 3.2 0.00 0.00 0.00 73 1014.7
20260502024331 10 278 1.6 1.6 0.00 0.00 0.00 73 1014.7
20260502023828 10 241 1.6 1.6 0.00 0.00 0.00 73 1014.7
20260502023326 10 275 1.6 3.2 0.00 0.00 0.00 73 1014.8
20260502022824 10 268 0.0 3.2 0.00 0.00 0.00 73 1014.7
20260502022320 10 221 1.6 1.6 0.00 0.00 0.00 73 1014.6
20260502021817 10 322 1.6 1.6 0.00 0.00 0.00 73 1014.7
20260502021314 10 318 0.0 1.6 0.00 0.00 0.00 72 1014.5
20260502020811 10 244 1.6 3.2 0.00 0.00 0.00 72 1014.4
20260502020308 10 262 1.6 4.8 0.00 0.00 0.00 71 1014.5
20260502015806 10 318 0.0 3.2 0.00 0.00 0.00 71 1014.5
20260502015305 10 295 1.6 1.6 0.00 0.00 0.00 70 1014.7
20260502014800 10 235 3.2 3.2 0.00 0.00 0.00 69 1014.8
20260502014256 10 309 3.2 3.2 0.00 0.00 0.00 69 1014.5
20260502013753 10 283 1.6 3.2 0.00 0.00 0.00 69 1014.6
20260502013248 10 180 3.2 4.8 0.00 0.00 0.00 69 1014.7
20260502012745 10 252 1.6 3.2 0.00 0.00 0.00 69 1014.6
20260502012243 10 332 1.6 1.6 0.00 0.00 0.00 68 1014.6
20260502011740 10 211 1.6 9.7 0.00 0.00 0.00 68 1014.7
20260502011236 10 243 3.2 3.2 0.00 0.00 0.00 69 1014.6
20260502010734 10 209 4.8 4.8 0.00 0.00 0.00 68 1014.6
20260502010229 10 270 1.6 3.2 0.00 0.00 0.00 68 1014.6
20260502005727 10 124 1.6 3.2 0.00 0.00 0.00 67 1014.3
20260502005225 10 324 0.0 3.2 0.00 0.00 0.00 67 1014.4
20260502004721 10 239 3.2 4.8 0.00 0.00 0.00 65 1014.4
20260502004217 10 260 3.2 4.8 0.00 0.00 0.00 65 1014.4
20260502003716 11 297 1.6 1.6 0.00 0.00 0.00 65 1013.9
20260502003213 11 269 1.6 3.2 0.00 0.00 0.00 63 1014.0
20260502002708 11 330 0.0 4.8 0.00 0.00 0.00 63 1014.0
20260502002206 11 284 3.2 4.8 0.00 0.00 0.00 62 1013.9
20260502001703 11 318 1.6 4.8 0.00 0.00 0.00 60 1013.7
20260502001201 11 300 1.6 9.7 0.00 0.00 0.00 59 1013.7
20260502000658 12 177 3.2 4.8 0.00 0.00 0.00 57 1013.5
20260502000156 12 22 1.6 8.0 0.00 0.00 0.00 55 1013.4
20260501235651 12 280 1.6 3.2 0.00 0.00 0.00 53 1013.4
20260501235148 12 267 3.2 4.8 0.00 0.00 0.00 50 1013.2
20260501234643 12 280 1.6 4.8 0.00 0.00 0.00 48 1013.1
20260501234141 12 292 1.6 1.6 0.00 0.00 0.00 46 1013.1
20260501233639 13 307 0.0 1.6 0.00 0.00 0.00 44 1012.9
20260501233136 13 241 1.6 3.2 0.00 0.00 0.00 44 1012.8
20260501232632 13 191 3.2 4.8 0.00 0.00 0.00 44 1012.9
20260501232130 13 319 3.2 3.2 0.00 0.00 0.00 43 1013.0
20260501231627 13 237 1.6 3.2 0.00 0.00 0.00 44 1012.8
20260501231125 13 310 1.6 3.2 0.00 0.00 0.00 43 1012.7
20260501230623 13 48 1.6 1.6 0.00 0.00 0.00 44 1012.6
20260501230121 13 260 4.8 8.0 0.00 0.00 0.00 42 1012.8
20260501225619 14 200 4.8 11.3 0.00 0.00 0.00 41 1012.8
20260501225114 14 241 1.6 3.2 0.00 0.00 0.00 41 1012.5
20260501224612 15 310 1.6 8.0 0.00 0.00 0.00 41 1012.3
20260501224109 15 228 6.4 9.7 0.00 0.00 0.00 39 1012.5
20260501223605 15 231 4.8 8.0 0.00 0.00 0.00 39 1012.4
20260501223101 15 201 3.2 9.7 0.00 0.00 0.00 39 1012.3
20260501222558 15 237 1.6 3.2 0.00 0.00 0.00 40 1012.3
20260501222055 15 214 3.2 4.8 0.00 0.00 0.00 41 1012.3
20260501221551 15 340 3.2 4.8 0.00 0.00 0.00 40 1012.2
20260501221049 15 317 1.6 8.0 0.00 0.00 0.00 38 1012.2
20260501220547 15 318 1.6 3.2 0.00 0.00 0.00 40 1012.2
20260501220043 15 316 1.6 3.2 0.00 0.00 0.00 39 1012.3
20260501215540 15 330 1.6 4.8 0.00 0.00 0.00 39 1012.3
20260501215035 15 247 4.8 4.8 0.00 0.00 0.00 40 1012.4
20260501214530 15 285 1.6 3.2 0.00 0.00 0.00 40 1012.3
20260501214026 15 239 3.2 8.0 0.00 0.00 0.00 39 1012.4
20260501213524 16 255 3.2 3.2 0.00 0.00 0.00 38 1012.2
20260501213020 15 358 1.6 1.6 0.00 0.00 0.00 38 1012.3
20260501212516 15 25 0.0 3.2 0.00 0.00 0.00 38 1012.2
20260501212013 16 356 1.6 3.2 0.00 0.00 0.00 39 1012.3
20260501211510 16 314 1.6 8.0 0.00 0.00 0.00 37 1012.1
20260501211008 16 300 3.2 9.7 0.00 0.00 0.00 35 1012.1
20260501210504 16 0 1.6 8.0 0.00 0.00 0.00 36 1012.0
20260501210000 16 24 6.4 12.9 0.00 0.00 0.00 34 1012.0
20260501205457 16 92 1.6 4.8 0.00 0.00 0.00 35 1012.2
20260501204955 16 198 3.2 8.0 0.00 0.00 0.00 34 1012.1
20260501204450 16 215 8.0 14.5 0.00 0.00 0.00 33 1012.1
20260501203947 16 350 1.6 3.2 0.00 0.00 0.00 33 1012.0
20260501203444 16 178 4.8 16.1 0.00 0.00 0.00 35 1012.1
20260501202942 16 318 1.6 3.2 0.00 0.00 0.00 36 1012.0
20260501202438 16 5 1.6 8.0 0.00 0.00 0.00 34 1012.0
20260501201934 17 323 3.2 8.0 0.00 0.00 0.00 39 1012.2
20260501201432 16 334 3.2 4.8 0.00 0.00 0.00 37 1012.2
20260501200929 17 27 3.2 8.0 0.00 0.00 0.00 37 1012.2
20260501200425 16 345 3.2 4.8 0.00 0.00 0.00 33 1011.9
20260501195923 16 342 0.0 1.6 0.00 0.00 0.00 34 1011.8
20260501195420 16 355 1.6 3.2 0.00 0.00 0.00 34 1012.0
20260501194915 17 58 1.6 4.8 0.00 0.00 0.00 36 1012.1
20260501194411 17 30 1.6 4.8 0.00 0.00 0.00 37 1012.0
20260501193907 17 270 8.0 16.1 0.00 0.00 0.00 32 1011.8
20260501193406 16 116 3.2 4.8 0.00 0.00 0.00 34 1012.0
20260501192903 16 48 3.2 4.8 0.00 0.00 0.00 33 1012.1
20260501192400 17 305 4.8 4.8 0.00 0.00 0.00 34 1012.4
20260501191857 17 359 3.2 8.0 0.00 0.00 0.00 34 1012.3
20260501191355 17 42 4.8 4.8 0.00 0.00 0.00 35 1012.2
20260501190852 17 283 3.2 4.8 0.00 0.00 0.00 35 1012.5
20260501190348 16 313 4.8 4.8 0.00 0.00 0.00 35 1012.6
20260501185843 16 321 1.6 4.8 0.00 0.00 0.00 35 1012.6
20260501185339 16 201 1.6 4.8 0.00 0.00 0.00 37 1012.4
20260501184834 16 347 0.0 9.7 0.00 0.00 0.00 37 1012.7
20260501184330 17 21 1.6 9.7 0.00 0.00 0.00 37 1012.7
20260501183826 16 12 3.2 4.8 0.00 0.00 0.00 33 1012.4
20260501183324 16 4 6.4 11.3 0.00 0.00 0.00 30 1012.8
20260501182820 16 38 4.8 9.7 0.00 0.00 0.00 34 1012.6
20260501182317 16 140 1.6 8.0 0.00 0.00 0.00 34 1012.7
20260501181814 16 22 4.8 8.0 0.00 0.00 0.00 37 1012.7
20260501181311 16 269 3.2 8.0 0.00 0.00 0.00 36 1013.0
20260501180808 15 274 11.3 16.1 0.00 0.00 0.00 35 1012.9
20260501180304 16 258 4.8 8.0 0.00 0.00 0.00 41 1012.7
20260501175801 16 317 3.2 9.7 0.00 0.00 0.00 37 1012.9
20260501175258 15 19 1.6 4.8 0.00 0.00 0.00 37 1012.8
20260501174755 16 256 8.0 9.7 0.00 0.00 0.00 38 1012.9
20260501174252 16 39 0.0 4.8 0.00 0.00 0.00 46 1013.0
20260501173750 15 354 1.6 8.0 0.00 0.00 0.00 40 1012.8
20260501173247 15 2 3.2 8.0 0.00 0.00 0.00 43 1012.9
20260501172743 15 355 3.2 11.3 0.00 0.00 0.00 44 1012.9
20260501172238 15 198 4.8 11.3 0.00 0.00 0.00 41 1012.9
20260501171734 15 8 4.8 16.1 0.00 0.00 0.00 42 1013.0
20260501171231 14 346 3.2 4.8 0.00 0.00 0.00 43 1013.0
20260501170728 15 9 1.6 3.2 0.00 0.00 0.00 46 1013.1
20260501170225 14 185 3.2 8.0 0.00 0.00 0.00 42 1013.4
20260501165722 15 350 3.2 8.0 0.00 0.00 0.00 41 1013.5
20260501165220 15 305 4.8 8.0 0.00 0.00 0.00 42 1013.3